Wind_Speed
1 1 1 2 3 1 2 1 1 1 0 1 1 1 1 2 3 4 3 2 1 1 1 1 7 9 6 5 8 6 4 5 5 2 1 2 7 13 13 17 24 23 18 16 16 18 19 20 19 20 21 21 21 22 22 22 23 23 22 21 22 21 21 21 21 21 20 20 20 19 18 18 18 18 18 17 16 15 14 14 14 13 13 12 12 12 12 13 12 12 13 13 13 13 13 13 12
1 1 1 2 3 1 2 1 1 1 1 2 1 1 1 1 3 5 2 1 1 4 3 6 9 7 7 9 10 7 5 3 2 1 2 7 14 12 12 20 24 23 18 14 16 17 18 19 19 19 20 21 21 21 22 22 23 22 21 21 21 21 21 21 21 21 20 20 19 18 17 17 17 17 17 16 16 16 15 14 13 13 13 12 12 12 13 13 12 13 13 13 13 13 14 13 12
2 2 2 5 3 1 2 0 1 1 1 2 1 1 1 2 4 5 4 1 5 6 4 7 8 6 5 9 6 3 3 2 3 4 5 12 14 10 13 20 22 22 18 14 15 16 16 18 18 18 19 20 20 21 21 21 22 21 21 21 21 21 21 20 20 20 20 19 18 18 17 17 17 17 16 15 15 15 15 14 13 12 12 11 12 13 14 14 13 13 13 13 13 14 14 13 12
1 2 4 4 1 1 1 0 1 1 2 2 1 1 2 4 5 5 2 3 5 2 0 3 4 3 1 7 4 2 4 4 6 6 7 11 12 12 14 19 21 20 18 14 13 14 15 16 17 18 18 19 19 20 20 21 21 20 20 20 21 21 21 20 20 19 19 18 18 17 17 17 17 16 15 15 15 14 14 14 13 12 12 11 12 14 14 15 14 14 13 13 13 13 13 13 12
1 3 4 2 1 1 1 1 1 2 2 1 0 1 2 2 3 3 4 4 1 2 1 1 3 2 2 5 2 1 5 5 7 8 9 11 12 15 15 18 20 18 16 12 12 12 13 15 16 16 17 18 18 18 19 20 20 20 20 20 20 20 20 20 19 19 18 18 17 16 16 16 15 15 14 14 14 14 13 13 13 13 12 12 12 14 15 15 15 14 14 14 14 13 13 13 13
2 4 3 1 1 0 1 1 2 2 1 1 1 1 0 0 2 4 4 2 0 3 1 0 2 5 4 5 3 3 4 4 8 9 11 13 14 15 15 17 18 16 13 11 11 11 12 15 14 14 15 17 17 17 17 19 20 20 20 19 19 19 19 19 19 18 17 16 16 15 14 13 13 13 13 12 13 13 12 12 12 12 13 13 13 14 15 15 15 15 14 14 14 13 13 13 13
3 4 2 2 2 1 2 1 2 2 1 3 2 1 1 1 2 0 1 1 1 3 3 3 3 6 5 3 4 4 2 3 8 10 12 15 16 15 16 18 17 15 12 10 11 10 12 15 15 13 14 17 18 17 16 16 18 19 20 19 19 18 17 17 17 17 16 16 15 14 13 12 12 12 12 12 12 12 12 11 11 12 13 13 13 14 14 15 15 15 15 14 14 13 13 14 13
2 1 1 1 1 1 1 1 1 1 1 3 4 4 4 3 3 3 2 0 1 2 3 5 3 3 4 1 2 4 3 5 9 12 15 16 16 15 16 19 18 15 12 10 10 10 13 15 15 13 13 16 18 18 18 16 17 18 19 19 19 18 16 16 16 16 15 15 14 14 13 12 11 11 11 12 12 12 12 10 11 13 14 13 13 14 14 15 16 15 15 15 15 14 14 14 13
1 1 1 1 1 1 1 0 1 1 3 4 5 6 5 4 5 5 4 2 1 2 3 3 4 2 5 3 4 3 4 8 12 15 15 15 15 15 16 18 18 16 13 11 9 10 13 14 13 13 12 14 16 18 18 18 18 18 18 18 19 18 17 16 15 16 15 14 13 13 12 11 10 10 11 11 11 12 12 10 12 13 13 13 13 14 15 15 16 15 15 15 15 15 14 13 13
1 2 1 1 1 2 1 1 0 1 5 6 6 7 6 5 5 6 7 4 1 4 4 2 4 5 6 6 6 3 6 11 15 15 14 15 15 16 18 18 17 16 13 11 10 10 12 13 13 14 12 11 14 16 18 18 18 19 18 18 18 18 17 16 15 15 14 13 12 12 11 11 10 9 9 10 10 11 12 11 12 14 13 12 13 14 15 15 15 15 15 15 15 15 14 12 10
0 1 1 1 2 2 2 1 1 2 5 6 6 7 7 5 5 6 7 5 1 3 5 2 4 7 5 5 4 2 8 13 15 16 15 15 15 17 18 16 16 15 14 12 11 11 11 11 11 12 12 10 11 14 17 17 17 17 17 17 17 17 16 15 14 14 13 13 12 11 11 11 10 9 8 8 9 10 11 11 12 14 13 13 12 12 14 15 15 15 14 15 15 14 12 10 8
1 1 0 2 2 1 1 1 1 3 4 5 5 2 3 5 5 5 8 8 4 5 6 4 5 6 4 3 3 5 10 13 14 16 16 16 16 16 16 14 14 14 13 13 12 12 12 11 11 11 11 10 10 12 14 16 16 16 17 17 17 17 16 15 14 13 13 12 12 11 11 10 10 10 9 8 10 11 11 10 11 13 14 13 12 12 13 14 15 14 14 15 15 13 11 9 7
1 1 1 1 0 1 2 1 1 3 3 2 3 2 4 5 5 7 8 8 8 8 6 6 8 5 4 3 3 6 10 12 15 15 16 16 15 14 14 14 13 12 12 12 12 12 12 11 11 11 11 10 10 11 13 14 15 16 16 16 17 16 15 14 13 13 12 12 11 11 11 11 10 10 9 10 11 11 11 10 10 12 14 13 13 13 12 13 14 14 15 15 14 13 11 9 8
1 1 1 1 1 1 2 1 1 2 2 1 2 1 2 3 4 6 5 8 9 6 4 8 10 7 4 4 4 6 10 14 16 15 16 16 14 14 14 13 12 12 12 12 12 12 12 11 11 11 11 10 10 10 11 12 13 14 15 15 16 15 14 13 13 13 12 11 11 11 11 10 10 9 9 10 10 11 11 11 10 11 13 13 13 12 12 12 13 13 14 15 14 13 12 10 9
1 1 0 2 1 1 2 2 0 1 1 1 1 3 2 2 3 4 7 10 6 3 6 7 5 4 6 8 6 9 14 18 17 16 16 15 15 14 13 13 12 12 11 11 11 11 13 12 11 11 10 9 10 10 10 10 10 12 13 14 15 15 15 14 14 13 12 11 10 10 10 10 10 9 9 9 10 10 10 10 10 11 12 13 13 12 11 12 12 12 13 14 13 13 12 10 9
1 1 1 1 1 1 2 2 1 1 2 2 1 4 4 1 2 4 5 4 7 5 5 6 3 1 6 8 6 14 19 19 18 17 17 16 15 14 13 12 12 11 10 9 11 13 13 13 12 11 10 8 9 10 10 9 9 9 9 11 13 14 15 15 15 14 12 10 10 10 10 10 10 10 9 8 9 9 8 9 9 10 11 11 12 12 11 11 11 12 11 12 12 12 11 10 9
1 1 1 1 1 2 3 4 3 1 3 3 1 4 5 3 1 1 1 5 11 8 2 3 1 2 4 6 10 21 21 19 19 18 19 17 17 15 13 12 11 10 9 8 12 15 14 13 12 11 11 9 9 10 10 9 8 8 7 9 11 13 15 15 15 13 11 10 10 10 10 10 10 10 10 9 9 8 8 8 8 10 10 10 10 10 11 10 10 11 11 10 10 11 11 10 10
1 1 1 2 2 2 3 4 3 1 5 7 5 3 5 3 3 1 3 8 10 9 4 3 4 5 5 10 18 23 20 21 21 19 19 18 17 15 13 13 11 10 9 8 12 15 13 12 10 10 10 9 9 9 10 9 9 8 8 9 10 11 13 14 14 12 11 10 11 11 10 9 9 10 10 9 9 9 8 8 8 9 10 9 8 8 9 10 9 10 11 11 10 10 10 10 10
1 1 1 3 3 2 3 3 2 3 6 10 9 4 4 4 4 2 4 9 11 11 6 4 7 8 10 15 22 23 20 21 21 20 19 17 17 15 13 13 11 11 10 9 13 14 12 11 9 9 9 9 8 8 9 9 8 8 8 9 9 10 12 13 13 11 11 11 12 11 9 9 8 8 8 9 9 9 8 9 9 9 9 9 8 7 8 10 9 8 9 11 11 9 9 9 9
1 1 2 3 3 3 3 4 5 6 7 9 9 5 2 3 2 2 6 9 9 10 9 8 9 10 13 16 21 22 21 20 20 20 19 17 16 15 15 14 12 12 10 9 13 14 11 10 8 9 9 8 8 7 7 7 8 8 8 8 8 9 10 12 12 11 11 11 11 10 9 8 8 7 8 8 9 9 9 9 9 8 9 8 7 7 7 9 10 9 8 9 10 10 9 8 8
1 2 3 2 2 4 5 5 7 6 4 4 6 6 2 1 1 3 10 9 6 8 9 8 12 16 17 17 19 21 20 20 20 19 18 18 16 15 16 15 14 12 10 10 13 14 11 9 8 9 10 9 9 8 7 7 7 7 7 7 8 8 8 9 11 11 11 11 11 10 9 8 7 7 8 9 10 10 10 9 9 9 9 8 8 7 7 9 10 10 8 8 9 10 9 8 8
2 3 3 3 3 5 6 3 6 4 2 3 4 5 2 1 1 7 12 9 3 4 5 2 9 18 20 20 20 19 19 19 19 19 18 18 18 17 16 14 13 12 10 10 13 14 13 10 9 9 10 9 9 9 9 7 7 6 6 6 7 7 7 7 9 10 11 12 12 10 9 9 8 7 7 9 10 10 10 10 10 10 9 9 8 7 8 8 9 10 9 8 9 10 9 8 8
4 2 1 4 4 5 5 2 4 2 2 6 3 3 3 2 2 7 8 3 2 3 2 4 9 15 19 21 20 18 18 17 17 18 19 19 19 17 15 14 14 12 10 10 13 14 14 12 10 10 9 9 9 9 9 8 8 6 5 6 6 6 6 6 8 9 9 11 12 11 10 9 9 8 8 8 9 9 10 11 11 11 10 9 8 8 8 8 9 10 11 10 9 9 9 8 6
3 2 2 4 4 7 7 5 4 1 5 7 1 2 4 4 1 4 7 2 3 4 3 10 12 14 17 18 18 17 16 16 17 17 17 18 18 17 16 15 14 11 11 12 14 15 15 14 12 11 10 10 9 8 8 8 8 6 5 5 5 5 5 6 7 7 7 8 10 12 12 11 9 9 9 8 8 9 10 12 12 12 11 9 8 8 8 8 10 10 11 10 8 7 8 7 5
3 4 3 3 3 7 8 6 5 3 6 6 2 4 3 2 1 4 6 2 1 2 8 13 14 15 15 15 17 16 15 16 16 16 14 14 16 15 14 14 13 12 14 17 17 17 17 16 15 13 12 11 9 8 7 7 6 5 5 5 5 5 6 6 6 7 6 7 9 11 12 12 11 10 10 9 8 8 9 12 13 13 11 10 8 7 8 8 9 10 11 11 8 6 6 7 6
4 5 3 4 6 6 5 5 5 4 4 3 2 1 2 2 0 3 2 2 2 6 10 14 15 16 15 14 15 15 16 16 16 15 13 13 14 14 15 16 16 16 18 20 19 19 18 17 16 14 13 11 10 9 7 6 5 4 5 4 5 5 5 6 6 7 7 7 7 8 10 12 11 10 9 9 9 8 8 10 13 13 11 9 8 8 8 8 9 10 11 11 9 7 7 7 6
3 5 4 7 8 5 4 4 3 2 1 2 2 2 3 2 1 2 3 2 6 9 9 12 14 15 15 14 13 14 15 16 16 16 14 13 14 15 18 20 19 20 21 21 21 20 19 17 16 14 13 11 9 8 6 6 5 4 4 4 4 4 5 6 7 7 7 7 6 6 8 9 10 10 10 9 9 8 8 10 12 12 11 10 10 10 8 7 8 9 10 11 10 9 8 7 6
2 4 6 7 5 2 3 2 2 1 1 2 2 3 2 1 1 1 2 2 5 9 10 10 12 13 14 15 14 13 13 13 14 15 15 15 16 19 22 24 24 23 23 23 22 20 19 18 17 15 13 11 9 8 7 5 4 4 4 4 4 4 4 5 7 8 8 7 6 6 7 7 8 9 9 8 6 6 7 10 12 13 14 13 13 11 8 7 8 9 10 10 9 9 8 7 6
1 1 5 7 1 1 3 2 1 1 1 1 2 2 1 2 1 2 1 3 5 9 10 9 9 9 11 12 11 9 9 11 12 13 15 17 20 24 26 27 27 26 25 24 22 20 19 18 17 15 13 12 10 9 7 5 4 4 4 5 5 4 3 3 5 7 8 8 7 7 7 6 6 6 8 8 4 3 6 7 12 17 18 15 12 11 10 10 10 10 10 10 9 9 8 7 6
2 1 2 5 1 2 7 4 2 1 2 1 3 1 1 2 1 3 1 4 8 9 9 8 8 7 8 9 8 8 8 10 11 11 13 18 22 24 26 27 27 27 26 24 22 21 19 18 17 15 13 12 10 9 8 6 5 4 4 3 3 2 2 2 2 4 6 8 8 9 7 5 5 5 6 8 5 4 5 6 10 14 16 16 14 12 12 11 11 11 11 10 10 9 8 7 6
2 1 0 2 0 2 6 4 4 3 2 2 2 2 2 1 3 3 2 4 9 9 9 9 8 8 8 8 8 9 9 8 9 9 12 18 21 23 25 27 27 27 26 25 24 21 19 18 17 15 13 12 11 10 9 8 6 4 4 4 4 3 3 2 2 1 2 5 6 7 7 3 4 3 3 4 3 5 6 7 7 8 12 16 17 14 12 11 10 11 12 12 11 10 9 8 8
2 1 0 1 0 1 4 3 5 4 1 3 1 2 2 2 4 3 2 3 6 8 10 9 9 10 9 9 8 8 7 6 7 9 13 17 20 23 25 27 28 28 27 26 24 22 20 18 17 15 14 13 13 12 10 9 7 5 5 5 6 5 5 5 4 3 2 1 0 1 2 1 0 1 1 0 2 5 6 5 6 7 9 14 16 14 12 11 10 11 12 12 11 11 10 8 7
2 1 0 1 1 1 2 3 5 4 1 3 2 2 2 2 4 3 2 3 6 7 9 10 9 9 9 9 8 7 6 6 8 11 14 17 20 24 25 27 28 28 27 26 24 23 21 19 17 15 15 15 14 13 12 10 7 6 6 6 6 6 6 7 6 5 4 3 3 3 3 2 1 1 0 1 3 5 5 5 7 7 6 8 11 12 12 13 14 13 13 12 11 11 10 8 7
1 1 1 0 1 1 2 1 4 6 3 3 3 2 3 2 3 1 2 2 6 7 8 9 9 9 9 8 8 8 7 8 10 12 14 17 21 23 24 26 28 27 27 26 24 23 21 19 17 16 16 16 15 14 12 10 8 6 6 7 6 7 7 8 7 6 6 5 5 5 5 4 3 3 2 1 2 3 3 4 6 5 4 4 5 8 11 14 17 16 14 13 12 11 10 9 7
2 2 2 1 1 1 2 1 3 7 4 2 1 2 3 3 3 2 3 2 5 6 5 6 7 8 8 8 8 8 8 9 8 7 10 15 20 22 22 24 25 26 26 25 23 22 21 19 18 18 18 18 17 15 12 10 8 7 7 7 7 7 7 8 7 6 6 6 6 6 6 6 5 5 4 4 3 2 1 1 2 3 4 4 4 6 9 11 14 15 14 13 12 10 10 8 7
1 2 2 2 1 1 2 1 3 4 2 1 1 1 3 4 4 2 3 2 4 5 4 4 5 6 7 7 8 8 9 9 5 5 9 15 19 21 21 22 23 24 25 24 23 22 21 20 20 20 20 19 17 15 13 11 10 10 10 9 8 8 8 8 7 6 5 5 5 5 5 5 5 4 4 5 5 5 4 2 2 2 2 4 4 4 6 7 9 10 10 11 12 11 10 9 6
2 2 2 2 1 1 1 1 2 2 1 0 1 1 3 4 5 3 0 1 4 6 6 6 7 7 8 9 10 10 10 7 3 5 9 15 19 20 20 20 21 22 23 24 23 23 22 22 21 22 21 20 18 16 15 13 13 13 12 11 10 10 9 8 7 5 4 4 4 4 4 4 3 3 4 4 5 7 6 4 4 3 2 1 2 2 4 5 7 8 7 8 11 10 10 8 6
2 2 2 1 2 1 1 1 2 2 1 0 1 2 3 3 4 3 1 2 5 7 8 9 10 10 8 10 12 11 8 5 4 6 8 14 19 21 20 20 22 23 25 25 25 24 23 22 22 23 22 21 19 16 14 13 13 13 12 12 11 11 10 8 7 5 4 5 5 5 5 4 4 3 4 4 5 8 9 8 6 5 4 4 3 4 4 1 3 6 6 7 8 8 8 7 6
2 1 2 2 2 2 2 0 2 2 1 0 1 3 4 3 4 4 3 4 3 3 6 7 9 11 10 11 12 10 8 6 8 8 9 13 18 20 21 21 23 25 26 26 25 25 24 23 23 24 23 22 19 16 13 13 12 11 10 10 11 11 10 8 7 6 6 6 6 6 5 5 5 6 7 6 7 9 10 11 11 9 7 6 6 7 8 5 2 2 3 5 7 7 6 5 4
1 2 2 1 1 2 1 1 2 2 1 1 1 3 4 2 2 2 2 4 4 3 2 3 6 9 11 11 10 10 11 10 11 10 9 11 14 18 21 23 24 25 26 27 26 26 26 25 24 25 25 23 20 17 14 13 12 11 9 9 10 9 9 8 7 7 7 7 6 6 6 6 8 8 8 8 8 8 9 11 13 12 11 10 10 10 9 7 5 3 3 4 5 5 4 3 2
1 3 3 1 1 2 2 1 3 1 2 2 2 4 2 1 1 2 1 3 4 3 3 3 5 6 7 7 7 10 11 11 11 11 10 12 15 19 22 24 26 26 27 29 30 29 28 27 26 27 26 24 21 19 17 15 15 13 11 11 9 8 9 9 8 7 6 6 6 6 7 8 9 8 8 8 8 8 8 9 11 13 13 12 13 13 12 10 8 6 4 4 3 3 3 3 3
1 4 6 4 3 3 2 1 1 1 0 3 3 4 1 2 1 1 1 2 2 1 2 4 3 3 5 7 8 9 9 9 10 12 12 13 16 18 20 23 27 29 30 32 32 31 30 28 27 28 27 25 23 21 19 18 17 16 14 14 12 10 9 9 8 7 7 6 6 6 7 8 7 7 7 7 8 9 9 9 10 11 11 11 12 13 13 12 12 11 8 6 6 5 4 5 5
1 3 6 5 3 3 3 1 1 2 2 2 2 3 3 1 1 1 2 5 4 2 2 0 0 2 3 6 7 8 9 10 9 11 12 13 15 16 18 23 28 31 32 32 32 31 30 29 28 29 28 26 25 23 22 20 20 18 16 16 14 13 11 9 8 7 7 7 6 7 7 7 7 7 7 7 7 8 9 9 10 10 11 11 11 11 12 12 12 12 11 9 8 7 6 7 6
1 1 4 7 5 4 4 3 1 1 2 1 1 1 4 3 1 1 2 4 4 3 4 5 3 2 3 5 6 7 9 10 10 11 12 13 14 18 21 24 29 33 31 31 32 32 31 30 29 29 29 28 27 26 24 23 22 20 18 16 15 14 11 9 9 9 8 8 7 7 7 8 8 7 7 7 7 7 9 10 10 11 11 11 10 11 11 11 11 11 11 10 9 8 7 7 6
1 1 4 5 4 3 3 2 1 1 2 3 1 1 3 3 1 1 1 2 3 4 8 10 8 6 5 6 7 9 9 9 10 12 12 13 16 20 21 20 24 30 30 31 33 32 32 31 29 30 30 29 28 28 26 24 23 20 19 17 16 15 12 10 10 11 10 9 9 8 8 8 8 7 7 7 8 10 12 13 13 13 12 12 11 11 11 10 10 10 11 11 11 11 9 8 7
2 5 5 6 5 5 3 1 2 2 3 5 1 1 3 4 1 1 2 2 4 6 8 9 9 9 8 7 7 8 9 9 9 10 12 13 15 17 16 15 20 26 28 29 31 31 32 31 31 32 32 31 31 30 28 27 24 22 20 18 18 16 13 11 12 12 12 11 11 10 9 9 8 7 7 8 11 13 14 14 15 15 15 14 14 13 12 11 11 11 11 11 11 12 11 11 10
5 5 5 6 4 3 2 2 1 1 3 3 2 2 3 4 1 2 2 3 4 6 7 8 10 12 12 10 10 9 8 8 8 9 10 11 10 11 14 15 19 23 24 26 29 30 32 32 31 32 33 33 33 31 30 29 26 24 22 20 19 18 16 13 14 14 14 13 12 12 11 10 9 8 8 9 12 13 13 13 15 16 16 16 16 16 15 14 13 13 12 12 11 12 12 11 11
4 2 3 3 1 1 1 1 1 3 4 0 3 2 3 4 1 2 2 4 4 4 6 9 11 12 12 12 12 10 8 7 6 7 8 9 9 12 15 17 19 22 24 26 29 31 32 31 30 31 33 35 34 33 32 31 28 26 24 22 20 20 19 17 16 16 15 15 14 14 13 12 11 9 9 10 11 11 11 12 13 14 15 16 16 17 17 16 15 15 14 14 13 13 12 11 11
2 2 3 2 1 1 1 1 1 4 3 1 2 1 2 4 2 2 3 3 3 4 5 7 10 11 11 12 12 10 8 6 4 4 5 7 8 10 13 14 16 19 22 25 28 30 31 31 32 32 34 35 35 34 34 32 31 28 26 24 22 21 21 21 19 18 17 16 15 15 15 14 14 12 11 11 11 10 9 10 11 12 13 14 14 15 16 16 16 16 16 16 15 14 13 13 12
4 3 3 4 2 1 2 2 1 3 2 2 1 1 2 3 0 2 3 3 4 5 5 6 8 9 9 10 10 9 8 6 2 1 3 5 6 7 9 9 11 13 15 20 25 28 30 32 33 33 33 34 35 35 35 34 33 30 27 25 24 22 22 23 22 21 19 17 16 16 15 15 15 15 14 13 12 11 9 8 9 10 11 11 12 13 14 15 15 16 16 16 15 14 13 13 12
2 1 2 3 3 2 3 3 3 4 0 2 0 2 2 1 1 2 3 4 4 4 5 6 6 6 6 7 9 9 9 8 6 3 3 3 5 7 8 8 9 10 12 17 22 25 28 31 30 29 29 31 33 34 35 35 34 32 29 27 26 24 24 24 24 23 21 19 17 17 15 14 14 14 14 13 13 11 10 8 8 8 9 9 9 9 11 12 13 14 14 14 14 12 12 11 10
1 1 1 2 3 3 1 1 1 1 0 1 2 2 1 1 1 2 2 2 3 4 5 5 6 7 6 7 9 10 10 10 8 6 5 4 4 6 9 10 10 11 14 18 22 25 28 29 27 26 26 28 30 31 32 32 32 31 29 28 27 26 25 25 25 24 22 20 18 17 16 14 14 14 15 14 13 12 10 9 8 7 7 8 7 7 8 8 10 12 12 12 11 10 10 9 8
3 2 3 1 0 3 3 0 2 1 3 2 1 2 1 1 1 1 1 3 4 4 5 6 7 8 8 9 9 10 10 10 10 9 8 6 4 4 6 10 12 13 15 19 22 26 28 28 25 23 23 25 28 29 30 30 29 28 27 27 26 26 26 26 27 25 23 21 19 18 17 16 15 15 15 15 14 13 11 10 9 8 8 7 7 6 6 6 7 9 10 10 9 8 8 8 7
2 3 3 3 1 2 2 1 2 0 4 2 1 3 3 3 3 3 4 3 3 4 5 6 7 8 9 8 9 10 10 10 11 12 11 10 9 7 3 4 8 11 14 17 20 23 25 27 25 22 22 25 26 27 28 29 29 29 29 29 28 27 27 27 28 26 24 23 21 20 19 18 17 17 16 16 15 14 13 11 10 9 8 7 6 5 5 5 6 7 8 8 8 7 7 7 6
1 1 3 2 2 2 2 2 2 2 3 2 2 2 3 4 4 7 7 4 3 2 3 4 6 7 7 7 9 10 10 10 11 11 11 10 11 12 10 7 4 5 9 12 16 19 21 25 25 24 24 25 26 26 26 27 29 31 32 33 31 29 28 29 29 28 26 25 24 22 22 21 19 18 18 17 16 15 14 13 12 10 9 8 6 5 4 4 5 6 7 7 7 6 6 6 5
2 2 2 0 2 1 2 1 1 3 3 1 2 2 3 4 4 8 9 5 2 1 1 2 4 4 4 5 7 8 9 9 9 9 10 10 12 15 16 13 12 8 4 5 8 12 15 20 23 23 23 23 24 25 25 25 28 30 32 32 30 29 29 30 30 30 29 27 26 25 24 23 21 20 20 19 18 17 16 15 14 12 11 9 7 6 4 3 3 4 5 5 6 6 5 5 5
2 2 3 1 0 0 1 1 1 1 3 2 3 3 2 1 2 6 8 5 3 2 0 1 2 2 3 4 5 6 7 8 8 9 9 9 11 15 16 16 19 19 14 8 4 2 6 11 15 18 20 21 22 23 24 25 28 30 30 30 30 30 32 32 33 33 32 31 29 27 26 25 24 23 22 21 20 19 18 17 16 15 13 11 9 8 6 5 3 3 4 4 5 5 5 5 5
1 2 2 2 2 1 3 3 1 1 2 2 3 3 2 2 1 3 5 3 2 2 2 2 2 1 2 4 4 5 6 6 7 7 8 9 11 13 14 16 20 22 21 19 15 10 5 3 7 11 16 18 20 21 24 26 28 29 30 31 32 34 34 34 34 35 35 34 32 30 28 27 26 26 25 24 23 21 20 19 18 17 15 13 11 9 8 7 5 4 4 4 4 4 5 5 6
Wind_Direction
196 162 80 22 28 98 89 22 206 82 285 261 269 273 215 222 310 276 214 183 219 139 198 143 133 133 121 131 142 103 57 157 151 145 178 56 125 142 142 147 152 147 140 140 150 155 156 158 153 154 153 150 150 148 147 145 142 140 137 132 131 132 135 139 140 140 141 141 139 138 137 135 135 135 134 134 132 129 130 132 132 130 130 133 137 139 139 139 141 142 141 140 138 137 135 133 134
149 99 62 93 72 128 135 321 243 84 241 247 236 182 357 260 261 247 223 313 111 123 121 115 111 91 77 101 121 111 66 41 46 75 83 125 132 130 139 149 152 148 141 137 148 154 157 158 154 155 154 152 151 150 149 147 143 141 139 135 133 134 136 138 140 141 141 141 141 141 139 138 138 137 136 135 133 131 132 133 133 133 131 131 135 136 137 139 142 143 143 141 140 139 137 136 135
124 95 124 131 81 12 126 308 235 135 204 248 239 176 300 277 260 269 274 302 108 126 123 114 101 76 102 123 130 121 97 83 126 118 116 142 138 130 141 147 151 149 143 139 145 153 157 157 156 156 155 153 152 151 151 149 145 143 142 139 136 136 137 138 139 141 142 143 144 144 142 141 142 142 141 138 136 134 134 134 134 135 132 132 133 136 138 139 141 142 143 143 141 141 139 137 136
118 129 158 158 95 16 128 77 157 171 198 240 268 167 282 281 289 308 262 163 118 133 134 128 98 45 178 132 123 75 110 143 144 134 134 148 143 135 139 144 148 147 146 141 143 151 156 159 159 159 157 154 153 152 153 153 148 145 145 143 141 140 141 140 139 141 144 145 146 146 145 145 146 147 147 145 142 139 138 137 138 136 133 133 134 136 138 139 140 141 143 143 142 141 140 138 138
97 120 154 193 206 128 123 91 110 204 206 195 344 41 306 287 331 38 128 158 125 332 344 162 95 79 50 82 76 98 116 127 139 145 138 140 140 137 135 141 143 140 141 139 143 148 153 160 159 162 159 151 152 154 157 156 153 149 147 148 145 143 143 142 142 144 147 148 148 149 150 150 151 152 154 153 149 145 143 143 141 138 137 136 135 136 138 139 141 141 142 143 142 141 140 138 137
124 118 98 100 97 59 157 155 150 205 207 192 212 94 332 353 78 88 110 176 102 29 45 210 112 129 95 65 60 88 112 133 145 149 138 138 142 141 134 137 139 132 130 133 143 142 149 160 159 164 157 148 153 159 161 159 157 154 150 151 149 146 145 144 144 145 148 149 150 151 153 154 153 154 156 157 154 148 146 146 139 138 142 140 137 138 140 141 141 142 145 148 146 143 141 140 140
157 144 63 101 103 335 195 185 176 207 167 192 258 144 197 20 89 93 17 193 136 45 51 76 94 117 96 87 98 72 53 148 149 142 137 141 141 139 136 139 136 127 126 130 139 140 147 158 159 161 155 154 161 161 161 163 162 159 156 154 153 150 146 145 145 145 147 149 151 153 154 155 153 154 156 158 159 152 150 149 137 142 147 142 140 141 144 143 143 147 149 149 150 150 146 146 146
141 157 325 166 119 16 171 143 175 237 206 206 267 238 235 333 343 305 330 344 106 55 85 67 34 103 96 112 115 60 54 117 135 131 132 137 137 137 138 143 138 127 128 132 135 141 149 155 155 155 154 159 166 164 163 166 165 163 161 158 157 155 152 149 147 147 148 150 152 153 154 156 153 156 161 164 166 159 156 151 138 145 151 147 145 144 147 147 149 153 151 150 152 154 151 149 146
68 22 210 190 147 129 137 160 178 239 262 237 248 247 251 282 293 292 283 277 142 142 126 57 351 135 120 98 106 92 89 115 127 129 133 133 134 137 140 147 142 130 128 132 134 137 147 151 150 150 153 161 168 171 168 168 170 166 164 163 162 159 157 154 150 150 150 152 151 150 154 155 154 158 164 166 168 164 159 152 142 147 152 151 150 146 148 150 156 156 152 154 152 151 152 150 147
42 14 170 131 150 214 202 206 151 205 258 262 258 250 244 238 245 258 264 271 176 146 140 75 34 98 119 106 105 104 119 127 128 130 136 134 135 140 142 148 144 135 129 130 132 133 142 147 148 148 154 164 171 178 176 174 174 171 167 168 168 164 161 157 153 152 150 153 153 152 155 156 157 159 161 157 163 167 161 154 146 148 152 153 153 150 150 152 160 160 157 158 152 151 152 150 149
155 37 154 182 175 229 219 211 233 228 258 289 287 246 232 220 216 238 248 261 238 156 165 149 89 104 103 102 108 118 131 134 132 131 136 135 135 141 141 142 143 138 132 129 129 129 132 137 142 146 153 164 169 175 180 181 179 177 175 173 173 169 165 161 156 155 152 153 155 155 156 158 160 159 158 154 164 171 165 157 148 150 155 155 156 154 154 156 161 162 161 161 157 157 156 154 153
196 92 143 199 203 230 173 225 246 258 267 288 292 228 187 182 188 222 216 223 209 179 188 173 150 134 105 95 107 134 142 140 137 135 136 134 132 138 137 132 135 134 130 129 128 129 129 130 134 142 148 153 158 165 175 181 182 183 181 179 179 175 170 166 160 158 156 157 159 159 158 159 161 161 160 162 169 173 168 162 151 154 159 158 158 158 159 161 163 163 164 165 165 166 165 165 163
176 140 164 171 265 158 142 245 262 284 281 250 262 115 139 166 204 227 206 209 195 188 194 155 148 135 101 108 117 145 155 148 142 140 136 134 132 132 129 124 127 128 127 128 128 129 129 128 128 134 143 144 146 155 169 175 176 179 179 182 183 178 172 169 164 162 162 163 162 161 161 162 166 167 163 165 171 169 167 164 155 157 161 161 160 160 164 166 168 169 170 171 173 175 175 175 173
166 158 199 154 79 151 159 254 240 263 258 227 265 75 176 204 242 229 192 195 191 187 156 137 144 130 114 137 155 174 165 155 148 145 139 134 132 129 126 125 127 128 129 130 130 131 131 131 128 131 139 141 143 148 161 168 170 173 177 182 184 179 174 171 170 169 170 167 163 164 164 164 168 169 167 165 168 167 165 163 159 159 161 165 166 166 169 171 175 178 179 180 179 180 182 183 184
168 139 113 135 131 189 202 241 184 209 235 223 286 340 285 248 252 208 197 198 179 151 124 132 167 138 160 173 177 180 165 158 153 148 142 135 132 129 126 127 129 130 133 133 131 136 139 140 141 141 140 141 148 151 154 162 169 175 177 181 184 181 177 176 175 177 174 168 164 166 166 164 167 171 172 164 164 168 165 163 165 165 161 163 169 175 180 179 180 184 185 187 186 186 187 186 191
141 133 75 132 151 215 200 198 169 206 260 219 183 339 324 333 219 211 227 197 129 154 151 147 204 62 171 178 156 163 159 155 153 149 146 140 136 132 131 131 131 134 136 134 136 138 136 136 139 141 141 140 148 152 153 155 161 169 172 175 180 180 182 181 179 178 173 169 166 167 168 168 170 172 172 167 167 170 169 172 172 170 167 166 170 178 188 188 186 186 186 189 192 194 192 186 186
163 149 103 150 179 224 200 188 186 200 308 277 354 9 328 330 132 220 239 145 134 150 130 117 146 23 166 157 140 152 153 153 153 150 149 145 140 136 140 141 138 142 140 136 138 135 130 130 130 133 138 139 140 144 149 151 153 158 155 157 171 180 183 182 179 174 169 169 168 167 171 172 174 173 173 174 173 176 182 188 183 177 175 173 175 180 188 193 192 190 187 186 190 195 195 186 180
187 134 149 200 193 218 199 194 198 292 316 298 316 2 301 280 124 123 141 130 129 130 96 71 77 62 111 128 141 148 150 154 154 154 153 152 147 142 146 150 146 146 143 140 139 136 132 130 131 133 138 141 137 136 143 149 150 154 152 151 167 180 179 179 176 171 169 171 169 171 174 175 178 178 177 176 177 179 188 196 190 184 181 179 183 185 188 192 196 195 186 183 186 191 195 189 184
152 113 206 217 200 224 201 206 230 261 295 303 309 338 287 250 137 160 164 138 142 138 120 101 99 99 118 133 144 147 150 153 156 159 157 158 158 154 153 152 149 148 147 144 143 141 138 134 135 143 146 145 141 135 140 148 149 153 154 149 159 170 172 176 174 170 170 173 174 175 176 178 182 183 180 180 183 184 190 198 192 187 184 181 183 186 187 186 195 199 185 182 186 188 191 190 190
173 161 234 233 214 255 232 220 240 248 279 298 306 325 294 242 157 182 155 144 163 160 150 145 143 141 141 145 147 149 153 153 160 163 159 162 162 160 160 157 154 154 153 148 149 150 149 145 143 152 157 155 153 148 143 146 148 152 155 151 154 164 174 179 178 175 174 178 179 177 178 183 183 181 182 185 191 194 197 195 190 190 186 184 184 185 190 187 194 203 196 189 185 187 192 191 190
162 201 237 234 166 265 252 219 243 251 255 267 302 321 311 232 203 165 148 152 197 195 183 169 160 157 151 152 152 154 157 157 165 166 162 163 160 161 162 160 158 155 154 152 156 160 161 160 156 158 163 163 165 165 156 151 149 151 159 160 156 165 182 183 180 184 185 184 180 179 183 187 186 183 188 193 197 201 204 194 188 192 188 188 186 187 198 196 196 198 200 199 188 188 194 195 189
178 214 243 234 178 265 270 232 246 245 218 242 301 323 335 345 185 164 166 173 195 205 216 191 154 157 156 158 157 158 161 163 167 166 164 164 163 163 159 156 156 154 156 160 164 167 168 169 167 162 164 167 168 169 166 161 158 155 159 167 164 168 178 175 179 192 198 195 189 189 189 190 193 191 192 200 203 203 203 197 193 193 189 191 192 194 204 206 206 201 199 203 192 186 191 197 194
227 228 250 247 213 252 271 243 235 190 264 280 297 325 324 280 196 166 184 193 11 315 239 139 147 159 158 158 160 162 165 165 166 166 168 167 165 163 159 159 159 158 162 168 170 171 170 171 170 165 167 170 167 169 168 166 167 166 162 168 171 173 177 174 182 196 203 204 203 204 202 201 202 204 201 202 206 205 203 200 198 197 192 195 200 204 212 215 221 215 207 208 194 182 186 191 197
248 258 269 260 212 233 254 251 253 206 270 279 298 318 293 249 218 164 193 205 347 300 152 131 141 155 157 159 163 162 162 162 164 167 168 170 169 165 163 165 165 165 169 173 171 170 170 170 171 170 172 174 170 168 168 168 171 173 175 176 177 181 183 179 186 193 197 202 208 212 216 214 213 214 209 202 203 204 208 208 204 201 195 200 206 206 218 221 224 221 213 211 198 182 184 183 190
217 245 258 257 212 235 257 266 276 275 260 268 265 286 282 233 240 173 194 233 359 155 134 130 139 152 159 164 163 159 160 162 163 165 167 171 170 165 167 170 170 173 175 172 170 170 171 170 171 173 175 176 174 172 171 170 170 174 179 183 185 191 194 191 195 199 197 196 201 210 219 223 220 214 208 207 208 206 214 215 211 205 198 204 209 205 216 223 222 219 212 209 205 192 184 179 175
200 227 244 252 264 267 282 291 283 276 261 245 233 278 57 53 316 177 163 20 119 135 133 134 142 155 161 163 161 160 162 164 165 165 165 166 167 167 172 176 175 177 176 172 172 173 173 172 173 175 178 178 178 178 179 175 172 173 179 188 194 198 208 206 204 205 206 203 200 204 212 219 217 212 211 213 212 211 218 219 216 211 204 206 211 212 217 220 217 212 207 206 209 203 185 173 165
182 227 254 258 277 297 294 290 284 281 284 232 206 79 56 16 255 183 54 78 144 131 135 143 148 157 164 163 162 165 167 170 167 161 158 161 170 173 174 178 178 178 176 176 179 178 176 177 177 180 182 184 186 187 191 185 176 177 182 193 202 210 221 219 212 208 208 207 207 201 200 206 212 218 221 224 221 217 224 222 215 212 209 212 211 210 213 215 210 205 203 203 202 198 188 176 169
196 252 271 270 281 285 276 280 293 311 58 253 205 84 46 287 259 325 28 174 159 135 145 155 153 156 164 166 166 172 174 171 165 162 165 169 176 176 175 178 179 179 181 183 183 181 182 182 183 185 187 189 194 197 204 201 182 183 194 204 217 223 226 231 221 213 208 205 209 207 202 202 210 223 228 238 234 222 238 226 211 210 210 212 214 208 203 200 189 186 195 201 199 197 195 190 190
240 288 288 298 331 83 357 359 305 8 70 255 196 119 192 219 284 345 349 181 156 138 148 158 157 153 158 165 168 173 173 168 172 178 176 175 178 178 177 179 180 182 186 188 186 185 186 185 187 189 190 193 198 200 204 207 194 193 206 221 231 224 215 226 218 213 213 210 213 217 218 213 213 226 235 243 227 206 256 232 204 212 209 205 213 209 204 200 187 181 189 200 203 202 206 211 219
253 54 311 313 340 38 15 360 295 49 81 257 207 207 220 215 327 358 336 167 148 138 150 162 161 155 158 166 170 175 178 177 184 189 178 176 181 182 181 182 184 187 190 191 190 191 189 189 191 192 193 195 197 197 197 194 190 188 190 195 200 196 193 204 210 215 220 219 221 223 223 229 234 242 248 250 236 198 252 246 211 214 210 204 207 206 205 208 202 195 195 200 207 213 224 236 242
301 321 70 343 317 11 12 353 338 52 74 305 225 267 276 296 2 25 345 188 159 148 160 167 165 167 170 174 180 184 189 190 190 191 184 183 186 186 186 187 189 193 195 194 194 195 193 192 194 193 193 193 191 188 183 179 172 161 142 124 118 115 138 163 179 184 222 228 231 230 224 233 246 250 272 270 239 195 227 254 240 224 215 209 209 208 207 210 210 208 206 206 211 222 232 240 248
353 307 158 351 28 353 354 13 27 53 31 325 255 269 296 349 1 20 8 218 183 161 166 173 174 175 176 180 189 192 191 194 197 199 197 194 191 191 191 192 193 197 199 198 197 196 196 195 194 194 190 186 184 179 174 172 164 151 134 117 114 108 119 144 166 163 164 196 319 258 210 182 133 197 289 219 189 206 216 243 254 246 231 217 212 212 210 209 214 217 216 215 216 225 234 241 255
1 6 107 325 29 37 344 56 44 29 352 359 11 271 269 20 1 8 43 211 199 176 172 177 179 179 184 188 192 196 194 195 204 207 203 199 197 196 195 196 197 199 201 200 197 194 193 192 191 192 187 182 179 176 173 169 161 154 147 135 126 116 118 133 146 147 130 108 82 72 94 82 55 109 143 172 202 228 216 219 239 246 241 223 216 216 210 208 214 218 220 220 218 226 237 250 265
71 25 88 340 331 7 338 29 28 9 13 36 28 269 255 340 333 2 98 188 197 190 184 181 183 187 191 194 196 201 202 204 209 206 199 198 200 200 198 198 197 198 199 197 195 191 189 187 186 187 184 181 179 177 174 169 162 160 159 152 140 130 128 130 131 129 116 101 89 82 85 83 74 74 69 104 195 223 213 226 242 240 233 228 223 219 211 211 218 219 220 226 228 234 241 251 264
159 159 127 128 235 255 312 306 12 7 14 49 30 269 284 306 287 198 138 167 198 198 191 186 190 194 197 201 206 207 210 215 213 199 195 198 202 203 200 198 196 195 195 194 191 190 187 183 182 185 184 181 181 179 173 167 162 160 163 161 151 142 138 135 132 126 116 99 84 80 78 80 73 61 59 65 81 100 108 210 245 234 221 221 230 222 210 216 225 222 220 228 233 238 240 245 260
153 147 138 139 172 232 274 272 12 358 348 88 79 300 309 299 282 222 139 130 182 185 181 194 198 200 205 211 215 216 221 223 204 179 195 200 204 205 201 198 197 195 194 192 190 189 186 181 181 183 184 183 182 176 170 164 160 159 161 159 154 151 148 146 142 134 121 105 92 85 75 73 68 57 54 51 55 65 70 84 96 103 203 230 246 239 213 221 230 220 217 227 231 235 234 236 250
107 125 148 148 196 235 261 246 23 348 269 110 77 299 286 284 283 259 301 75 174 177 180 194 199 204 207 210 216 219 225 225 183 183 197 198 204 206 202 200 199 196 195 193 189 188 186 183 182 183 183 185 184 177 171 168 163 161 159 157 157 156 155 152 146 143 134 124 116 104 91 82 74 64 59 52 53 59 65 77 90 94 92 195 230 209 203 229 232 209 200 217 226 227 223 224 238
114 152 164 176 221 238 352 340 5 1 280 133 91 282 263 263 283 277 289 241 202 186 184 194 198 203 208 212 219 221 221 213 193 198 188 191 200 203 203 201 199 198 196 194 191 189 187 184 184 184 183 185 187 183 178 177 172 166 163 161 162 159 157 154 149 148 144 135 125 113 103 89 80 83 83 80 78 74 75 79 84 97 98 103 113 114 123 151 233 207 196 200 204 204 204 208 222
125 154 188 193 215 275 295 260 357 4 304 253 100 297 280 264 274 271 248 229 229 206 195 201 199 199 205 210 216 219 217 213 210 205 187 188 194 197 201 202 202 201 198 195 192 189 185 184 185 186 185 186 189 188 186 184 177 174 172 167 164 161 160 161 154 142 130 127 120 107 93 81 83 98 103 100 96 89 83 81 83 93 98 102 102 97 101 102 118 160 170 172 166 168 180 187 199
153 164 211 206 120 284 250 167 351 10 16 342 288 283 284 284 265 242 249 258 284 307 255 228 210 207 211 212 213 210 207 208 210 206 191 185 187 192 198 201 201 201 200 197 193 189 185 185 188 188 187 188 188 188 190 187 178 176 173 168 168 164 160 158 147 132 124 121 115 101 87 87 93 101 103 96 92 90 86 84 86 92 95 97 98 94 95 99 108 117 120 131 136 147 156 147 151
194 194 210 209 178 229 248 325 320 316 103 40 315 272 261 345 308 157 96 286 275 311 313 264 230 223 231 237 233 218 210 208 205 202 192 186 190 193 195 197 198 199 202 199 194 191 187 187 191 190 188 188 187 188 190 185 178 176 170 165 169 162 157 157 151 142 136 128 115 102 97 103 105 101 96 86 86 88 88 91 92 94 94 92 93 91 89 88 90 92 88 91 101 137 161 144 120
223 216 211 205 187 192 212 316 315 266 97 45 352 289 253 42 321 182 42 313 256 233 268 253 241 232 227 236 237 231 229 223 211 205 197 193 195 191 187 191 196 200 203 200 196 193 189 190 193 191 190 189 187 189 190 184 179 179 173 169 170 166 166 172 170 159 148 137 120 107 108 114 112 102 94 88 87 88 91 98 101 102 100 95 93 91 88 84 80 77 74 78 79 92 126 121 103
209 215 192 178 157 153 162 173 231 308 317 28 3 290 277 330 336 23 343 317 305 273 252 227 346 256 228 230 231 228 231 230 223 216 207 201 195 187 186 191 195 200 203 199 196 194 190 192 194 192 191 190 188 189 189 185 181 182 182 179 180 180 180 180 175 162 152 146 128 112 110 117 114 103 98 92 87 88 94 100 103 107 106 102 99 95 90 84 79 76 74 76 73 72 87 90 80
170 159 153 152 153 162 160 157 181 322 312 307 49 318 279 283 306 19 310 298 312 325 347 4 1 301 281 268 255 242 235 226 221 221 214 206 197 191 193 194 195 200 200 197 196 194 191 193 195 194 192 192 191 190 190 187 184 184 186 189 191 191 188 181 174 167 161 154 141 125 114 116 117 107 100 91 84 87 96 101 103 107 106 104 102 97 92 87 82 80 76 75 75 70 72 79 73
8 103 124 130 125 127 133 136 135 62 290 253 124 87 270 271 251 2 336 326 343 349 343 338 334 326 305 283 277 272 264 248 231 225 217 207 202 199 196 192 194 199 199 196 196 194 192 194 197 196 194 194 194 193 192 190 188 187 189 194 199 199 196 186 178 174 168 162 154 144 129 124 122 113 102 90 90 97 100 99 97 97 98 97 98 96 93 89 85 82 78 76 77 77 74 77 75
131 134 105 86 77 70 80 96 116 94 272 261 299 29 272 277 275 346 12 27 343 330 329 323 324 328 321 313 306 290 280 272 254 241 229 216 206 199 190 183 189 199 200 197 196 194 192 195 198 197 195 196 197 196 194 193 193 193 194 199 205 207 205 194 184 180 174 170 164 157 148 140 134 124 112 99 102 107 103 95 89 88 90 92 92 90 86 82 77 76 77 77 78 77 74 74 74
150 149 101 86 72 55 68 50 66 164 244 258 354 359 259 275 286 84 5 331 308 306 315 321 326 332 330 330 330 317 301 284 260 247 235 221 204 188 183 182 188 196 197 195 196 194 193 196 198 197 197 198 199 198 198 197 196 197 199 202 208 215 215 204 193 187 181 177 173 167 162 155 149 141 128 116 115 114 105 92 85 84 87 89 87 84 80 76 74 73 73 73 73 71 69 69 68
157 156 113 117 72 59 105 64 97 232 247 323 13 323 235 252 235 89 343 305 298 291 303 318 324 328 327 328 331 328 319 299 263 239 221 203 189 181 183 183 182 187 191 192 195 194 194 197 199 199 199 201 200 199 200 201 200 201 203 205 210 218 221 215 206 198 190 183 180 175 170 166 162 156 144 134 130 124 110 97 88 84 84 86 86 83 78 75 74 75 74 73 71 68 66 66 61
182 145 141 206 241 92 237 247 197 238 257 37 8 284 229 245 269 20 336 329 340 315 305 315 321 322 326 330 332 333 331 316 277 225 202 187 179 179 183 180 174 179 186 189 192 193 193 198 202 202 201 202 202 201 202 203 204 204 205 208 212 218 224 223 217 210 201 192 187 182 176 173 171 167 159 151 146 138 122 107 96 88 85 86 87 84 78 73 73 77 78 77 76 72 70 70 66
196 173 169 219 213 155 231 221 246 262 258 53 355 261 247 245 235 12 340 355 350 332 329 331 332 330 330 335 339 345 350 342 338 146 172 175 167 167 175 175 169 172 177 182 189 192 195 200 204 204 203 203 203 203 203 205 207 208 208 211 214 218 224 226 224 218 211 203 196 192 186 181 178 174 166 161 157 153 141 123 108 95 89 87 86 84 78 72 73 79 81 79 78 77 74 74 72
195 163 160 208 202 210 245 226 238 261 160 78 204 218 235 235 60 355 334 354 353 353 353 347 355 353 342 352 3 5 8 9 16 53 99 131 145 151 158 163 165 166 171 179 188 194 198 203 207 205 203 204 204 204 205 205 208 210 212 215 218 222 227 229 228 225 219 213 205 201 196 189 184 177 170 166 164 164 157 142 125 110 101 94 87 83 79 72 71 80 83 79 78 77 74 73 71
128 49 165 210 204 181 235 300 274 285 191 135 203 228 272 324 346 332 344 30 33 15 6 13 18 12 11 22 23 19 21 23 23 35 57 75 117 142 150 157 165 170 176 185 191 196 201 207 211 209 205 206 207 207 207 208 210 213 215 218 222 227 231 232 232 230 226 221 214 210 205 198 190 180 173 171 170 171 168 159 144 132 122 114 105 94 88 79 71 79 85 83 81 80 77 76 75
133 183 194 178 101 125 130 117 55 6 246 198 179 225 210 185 212 141 93 72 66 35 21 30 21 15 24 28 24 22 25 28 30 35 40 43 64 113 148 161 169 174 180 188 194 198 203 208 212 212 209 210 212 211 211 211 212 216 219 223 228 232 235 235 234 234 233 228 223 218 213 207 198 186 180 177 176 177 176 172 162 151 141 132 123 111 101 91 78 79 85 85 84 85 84 81 79
147 194 170 128 94 94 126 200 82 141 243 217 181 227 203 189 181 149 151 129 84 47 28 32 25 22 25 22 20 23 23 28 34 38 39 38 41 47 68 149 168 175 181 190 197 201 205 209 213 214 213 214 215 216 214 213 213 216 220 224 229 233 236 237 236 237 237 234 229 224 219 214 205 195 189 185 182 182 182 181 177 166 157 149 137 123 110 98 84 78 79 78 77 80 83 79 74
3 178 129 126 218 193 156 188 170 202 235 222 190 224 228 218 182 158 168 160 105 53 27 39 35 26 16 11 17 20 20 25 30 35 37 36 41 46 46 51 82 156 183 192 200 205 208 213 217 218 219 219 219 221 219 216 216 218 219 223 227 231 234 236 236 237 238 237 234 229 224 219 212 204 198 194 191 190 189 189 187 179 171 165 156 140 123 109 92 79 78 75 67 69 77 75 65
70 130 128 59 272 231 181 179 197 217 223 216 202 205 219 217 173 160 166 164 153 142 42 54 47 27 11 12 19 19 21 22 24 29 35 35 41 49 51 52 60 74 122 178 196 207 212 217 220 222 224 223 223 225 224 222 221 222 223 224 227 232 235 234 234 237 239 239 237 233 229 222 216 211 204 201 199 198 198 197 193 189 184 179 175 168 158 141 106 83 81 73 59 58 67 65 58
135 171 183 181 123 337 225 168 86 221 204 178 203 224 204 154 160 160 153 150 167 174 155 87 64 43 33 33 29 27 27 24 22 23 26 27 35 48 52 54 62 67 67 73 98 203 230 227 226 226 226 225 225 227 228 227 227 228 227 224 225 231 235 233 232 235 238 240 238 235 233 226 219 215 210 206 204 204 204 202 198 195 191 188 183 178 172 160 141 110 85 64 48 46 47 42 38
219 204 218 193 155 187 220 210 175 211 227 177 190 227 191 120 160 159 134 144 188 179 172 140 85 58 43 46 39 35 30 26 25 23 25 24 27 38 47 50 56 59 57 58 62 56 30 302 253 241 232 228 227 228 231 233 232 231 231 228 227 230 235 233 232 233 236 238 238 236 235 230 222 218 215 211 209 208 205 203 199 196 192 189 184 179 173 160 150 137 109 77 57 45 31 23 21
Height
779 778 777 777 776 776 777 778 785 790 791 796 796 791 785 782 782 778 775 773 773 771 767 766 765 766 770 773 775 776 779 780 784 795 796 783 780 783 783 785 786 787 790 792 794 796 798 799 800 802 803 804 806 807 808 809 810 811 812 812 813 814 815 816 817 818 819 820 821 822 823 823 823 824 824 825 826 827 827 828 829 829 829 829 829 830 831 832 833 833 834 834 834 834 835 835 836
778 778 777 777 776 776 780 780 790 797 795 796 794 790 784 782 783 775 772 772 771 769 766 765 765 767 768 768 770 775 779 779 778 781 782 781 782 783 785 786 786 788 790 793 795 796 798 800 801 803 804 805 807 808 809 810 810 811 812 813 814 814 816 817 817 819 820 821 822 823 823 824 824 825 825 825 826 827 827 828 829 829 829 830 830 830 831 832 833 834 835 835 835 835 835 836 836
777 777 776 776 776 777 781 782 791 801 798 795 789 786 784 781 777 773 773 771 770 768 767 766 766 770 770 772 773 776 781 780 778 779 780 781 782 784 786 786 787 789 790 794 795 797 799 800 802 803 805 805 807 809 810 811 811 812 812 813 814 815 816 817 818 819 820 821 822 823 824 825 825 825 826 826 827 827 827 828 829 830 830 830 830 830 831 833 834 834 835 835 836 836 836 836 837
777 777 776 776 778 779 783 787 794 798 796 797 789 781 781 779 775 773 773 770 769 768 768 768 769 771 770 776 776 776 781 779 777 778 780 781 782 785 786 787 788 790 792 794 796 798 799 801 802 804 805 806 808 810 811 811 812 812 813 814 815 816 817 818 819 820 821 822 823 824 825 825 826 826 826 827 828 828 828 829 829 830 830 831 831 831 832 833 834 835 835 836 836 837 837 837 837
776 776 776 775 779 780 785 795 801 797 790 793 788 779 778 777 776 775 773 771 769 769 769 769 772 772 770 774 776 778 780 778 778 777 779 781 783 785 787 788 789 791 793 795 796 798 800 801 802 804 806 808 810 810 811 812 812 813 813 815 815 816 817 818 819 820 822 822 823 824 825 826 826 827 827 828 828 829 829 829 829 830 830 831 831 832 832 833 834 835 836 836 837 837 837 838 838
776 776 776 775 779 780 786 796 800 795 785 785 784 779 777 774 776 775 773 771 769 768 767 769 771 771 774 776 775 777 778 778 778 778 779 782 784 786 787 788 790 792 794 795 797 799 800 801 803 804 806 809 810 810 812 812 813 814 814 815 816 817 818 819 819 821 822 823 824 825 825 826 827 827 828 828 829 829 830 830 830 830 830 831 831 832 833 834 834 835 836 836 837 838 838 838 838
776 776 777 777 781 782 789 795 795 792 784 785 781 777 776 773 774 773 773 772 769 768 767 769 768 770 778 778 776 777 776 777 776 778 780 782 784 786 787 789 790 792 794 796 797 799 800 801 803 804 806 808 809 810 812 813 814 814 815 816 817 818 818 819 820 821 822 823 824 825 826 826 827 828 828 829 829 830 830 830 831 831 831 831 831 832 833 834 835 835 836 836 837 838 839 839 839
775 777 779 780 786 789 795 799 796 793 787 785 781 776 775 772 772 773 773 772 772 770 769 770 768 773 781 778 780 779 776 777 777 779 781 782 785 786 788 789 790 793 795 797 798 799 800 802 803 805 806 808 809 810 811 812 814 815 815 816 817 818 819 819 820 821 822 824 825 825 826 827 828 828 828 829 829 830 830 831 831 831 831 831 831 832 833 834 835 835 836 837 837 838 839 839 840
775 777 780 782 789 794 797 800 797 795 788 782 779 776 775 774 773 773 772 772 772 771 771 771 768 774 781 780 782 780 777 778 778 780 782 783 785 786 788 790 791 793 795 797 798 799 800 802 804 805 807 808 809 810 811 812 813 814 815 817 818 818 819 820 820 821 822 824 825 826 826 827 828 828 829 829 830 830 831 831 832 832 832 832 832 832 833 834 835 835 836 836 837 839 839 840 840
776 777 781 784 790 794 797 799 796 794 787 777 775 774 774 774 773 773 771 770 770 770 771 769 769 774 779 782 783 779 778 779 779 781 783 784 786 787 789 790 792 793 796 797 798 800 801 802 804 806 807 807 809 810 811 812 813 814 815 817 818 818 819 820 820 821 823 824 825 826 827 827 828 828 829 829 830 830 831 831 832 832 833 833 833 833 833 834 835 835 836 836 838 839 839 840 841
778 779 781 786 792 794 794 796 793 789 784 778 775 771 771 772 773 773 771 771 769 770 770 769 773 777 779 782 782 779 779 780 780 782 784 785 787 788 789 791 793 794 796 797 799 800 802 803 804 806 807 807 809 810 811 812 813 814 815 816 818 819 819 820 821 822 823 824 825 826 826 827 828 828 829 829 830 830 831 831 832 833 833 833 834 834 834 834 835 836 836 837 838 839 840 841 841
779 783 782 788 793 792 795 795 790 785 782 780 773 767 769 771 774 773 771 770 768 770 769 768 772 773 780 784 781 779 779 780 782 783 784 786 787 789 790 792 794 796 797 798 800 801 802 804 805 806 807 808 809 810 811 812 813 814 815 816 818 819 819 820 821 822 823 824 825 825 826 827 827 828 828 829 830 830 831 831 832 833 834 834 834 835 835 835 836 836 837 837 838 839 840 841 841
779 785 782 789 795 794 796 794 789 787 781 776 770 767 769 769 771 768 768 769 767 770 768 765 767 770 781 784 780 780 780 781 782 783 785 786 788 790 792 794 796 797 798 800 801 802 803 804 805 806 807 808 810 811 812 813 814 814 815 816 818 818 819 821 822 822 822 823 824 825 826 826 827 827 828 829 829 830 831 831 832 833 834 834 835 835 836 836 836 837 838 838 839 839 840 841 842
778 783 781 790 800 796 794 789 787 789 779 770 768 768 769 768 766 764 766 769 768 768 765 763 764 770 781 784 783 781 779 781 783 784 786 787 789 791 793 795 797 798 800 801 802 802 803 804 805 806 808 809 810 811 812 813 813 814 815 816 817 818 820 822 822 822 822 823 824 826 826 826 827 827 827 828 829 830 830 831 832 833 834 835 835 836 836 837 837 838 838 838 839 840 841 841 842
777 781 782 789 798 794 790 787 785 788 777 768 769 768 768 766 764 764 764 765 767 764 763 764 764 769 777 780 781 778 778 781 782 785 786 788 790 792 794 796 798 799 801 802 802 803 803 804 805 806 808 809 810 811 812 813 813 814 815 816 817 818 820 821 823 823 822 823 824 826 826 826 827 827 827 828 829 830 830 831 832 833 834 835 835 836 837 837 837 838 838 839 839 840 841 841 842
777 779 784 789 795 793 789 787 787 786 776 767 769 767 767 765 763 765 761 759 765 765 764 766 765 768 771 772 773 773 777 781 782 785 786 789 791 793 795 797 799 800 802 802 803 803 804 805 805 807 808 809 811 811 812 813 814 814 815 816 817 818 819 821 823 822 823 823 824 825 826 826 827 827 827 828 829 830 830 831 832 833 834 835 836 836 837 837 837 838 838 839 840 840 841 841 842
776 778 787 791 794 792 785 786 784 780 772 766 768 768 768 766 763 763 758 757 763 767 766 767 766 767 768 769 770 772 777 780 782 785 787 789 791 793 795 797 799 800 802 803 803 804 804 805 806 807 808 809 810 811 812 813 814 815 815 817 817 818 819 821 822 822 822 823 824 825 826 826 827 827 827 828 829 830 831 832 832 833 834 835 836 837 837 837 838 838 838 839 840 840 841 841 842
777 783 791 791 792 787 779 780 777 775 772 767 766 768 769 767 765 762 761 762 764 768 769 768 768 767 767 769 771 774 778 780 783 785 787 789 791 793 795 797 799 801 802 803 804 804 805 806 807 808 808 809 810 811 813 813 814 815 816 817 818 818 819 820 821 821 822 823 824 825 825 826 827 827 828 828 829 830 831 832 832 833 834 835 835 836 837 837 838 838 838 839 840 841 841 841 842
780 788 790 787 786 780 774 776 774 773 771 766 765 767 768 765 763 762 765 769 766 768 772 771 771 771 770 770 772 775 778 781 783 785 786 788 790 792 795 797 799 801 802 803 804 805 805 806 807 808 809 809 810 811 812 813 814 815 816 817 818 818 819 820 820 821 822 823 824 824 825 826 826 827 827 829 829 830 831 832 833 833 834 835 835 836 837 838 838 838 838 839 840 841 841 841 842
781 786 787 782 779 776 773 774 772 770 769 768 767 766 767 764 762 762 766 771 768 767 769 770 773 773 772 772 773 776 779 781 783 785 786 788 790 792 794 796 798 801 802 803 804 805 806 807 808 809 809 810 810 811 812 813 814 815 816 817 817 818 819 820 821 821 822 823 823 824 825 826 826 827 827 828 829 830 831 832 833 833 834 835 835 836 837 838 838 839 839 839 839 841 841 841 842
781 782 782 778 778 777 770 769 769 768 769 770 768 766 766 763 762 763 765 771 771 766 762 762 766 769 771 772 774 776 779 781 783 785 786 788 790 792 794 796 798 800 801 802 803 805 806 807 808 809 809 810 811 811 812 813 814 815 816 816 817 818 819 820 821 821 822 823 823 824 825 825 826 826 827 828 829 830 831 832 833 834 834 835 835 836 837 838 838 839 839 839 840 841 841 841 842
780 778 776 774 778 776 766 766 768 767 769 769 768 766 764 763 763 763 763 767 767 763 760 760 762 763 766 769 772 776 778 781 782 784 786 788 790 792 794 796 798 799 801 802 803 805 806 807 808 809 809 810 811 811 812 812 813 814 815 816 817 818 818 819 820 821 822 822 823 823 824 825 825 826 827 828 828 830 831 832 833 833 834 835 835 836 836 837 838 838 838 839 840 841 841 841 842
778 776 775 773 774 773 766 765 765 766 768 766 767 766 764 765 764 763 763 763 762 761 760 761 763 764 765 767 771 774 777 780 782 785 787 788 790 792 794 796 798 799 800 801 802 804 805 806 807 808 809 809 810 811 811 812 813 814 814 815 816 817 818 819 820 820 821 822 822 823 824 824 825 825 826 827 828 829 831 832 832 833 834 834 834 835 836 836 837 837 837 838 839 840 841 841 842
778 777 774 771 772 771 765 764 765 767 767 764 765 766 764 765 765 764 764 763 762 761 760 761 764 767 769 771 773 775 778 781 783 786 787 789 791 792 794 796 797 799 800 801 801 803 804 805 806 807 808 809 810 810 811 812 813 813 814 815 816 817 818 818 819 820 821 821 822 822 823 823 824 825 826 827 828 829 830 831 831 832 833 833 833 834 835 835 836 836 836 837 839 840 841 841 842
779 777 772 770 769 767 763 764 765 767 766 763 765 766 764 764 765 766 764 762 762 762 760 761 765 769 772 774 775 778 781 782 784 786 788 790 792 793 795 796 797 798 799 799 800 802 803 805 806 807 808 809 809 810 811 812 812 813 814 815 816 817 817 818 819 820 820 821 821 821 822 823 823 824 825 827 827 828 829 830 831 831 832 832 832 833 833 834 835 835 835 837 838 840 841 841 841
776 773 771 769 766 764 764 765 765 766 764 763 764 765 765 765 767 766 764 764 763 763 762 763 766 770 773 775 778 779 780 782 784 786 788 791 792 793 794 795 796 797 798 799 800 801 803 804 805 806 807 809 809 810 811 812 812 813 814 814 815 816 817 818 818 819 820 820 821 821 822 822 823 824 825 827 828 829 829 829 830 831 831 832 832 832 833 834 834 834 835 836 837 839 840 841 841
772 771 770 768 766 766 767 766 765 765 764 763 763 764 765 765 766 765 765 765 764 764 765 765 766 770 773 775 778 779 780 782 783 785 788 790 792 793 794 794 795 796 797 798 799 801 802 804 805 806 807 808 809 810 811 811 812 813 813 814 815 815 816 817 818 818 819 819 820 821 821 822 822 824 825 826 827 828 828 828 830 830 831 831 831 831 832 833 834 834 835 836 837 839 840 840 841
771 771 769 767 766 768 767 765 765 764 764 765 762 763 765 764 765 765 766 766 764 765 768 768 768 770 772 775 777 779 780 781 782 784 785 787 789 790 791 792 794 796 796 797 799 801 802 804 805 806 807 808 809 810 811 811 812 813 813 814 814 815 816 816 817 818 818 819 820 821 821 822 822 823 825 826 827 827 826 826 829 830 829 829 830 831 832 833 834 834 835 836 837 838 839 840 841
772 772 770 765 763 765 764 763 765 763 764 765 762 766 768 765 766 767 767 767 765 766 769 770 770 771 773 775 777 778 779 781 782 782 783 785 786 788 790 791 793 794 796 797 799 801 802 804 805 806 807 808 809 810 811 812 812 813 813 813 814 814 815 816 817 817 817 818 819 820 821 821 822 823 824 825 826 827 825 824 826 827 827 828 830 830 831 832 833 834 834 835 837 838 839 839 840
772 773 774 770 767 766 764 765 764 761 765 764 763 774 772 764 766 768 769 768 766 768 770 771 772 773 774 775 777 778 778 780 781 782 783 785 786 788 790 791 793 794 796 797 799 800 802 803 805 806 807 808 809 810 811 812 812 813 813 813 814 814 815 816 816 817 817 818 819 819 820 821 822 822 823 823 825 826 824 822 823 824 826 828 828 829 830 831 832 833 834 835 836 837 838 839 839
774 774 777 780 777 770 765 767 765 760 766 762 762 776 772 763 768 769 770 769 767 769 771 772 773 774 775 776 777 777 778 779 781 783 784 785 787 788 790 791 793 794 795 796 798 800 801 803 804 805 807 808 809 810 811 812 812 813 813 814 814 815 815 816 816 817 817 818 819 819 819 820 821 822 823 823 824 825 823 822 823 825 826 827 827 828 830 831 833 833 834 834 835 836 837 837 838
779 778 781 786 781 774 768 768 769 766 768 762 763 776 771 766 771 771 772 771 769 770 771 772 773 774 775 776 777 777 778 780 782 783 784 786 787 788 789 791 792 794 795 796 798 800 801 803 804 805 806 807 809 810 811 812 812 813 814 814 815 815 816 816 817 817 818 818 819 819 820 820 821 822 823 823 823 824 824 823 823 823 825 826 827 828 831 833 833 833 833 834 835 835 836 836 836
781 781 783 787 781 776 772 768 770 771 768 764 766 773 770 770 772 771 773 772 771 771 772 773 774 775 775 775 776 777 778 780 781 782 783 785 786 787 788 790 792 793 794 796 798 800 802 803 805 806 807 807 809 810 811 812 813 813 814 815 815 816 816 817 817 818 818 818 818 818 819 820 820 821 822 822 823 823 824 823 822 823 824 825 827 829 831 832 832 832 832 833 834 834 835 835 835
784 784 786 791 787 782 777 770 771 772 769 769 771 772 770 771 771 770 773 773 773 773 772 774 774 775 775 775 776 777 778 779 779 780 782 784 785 787 788 790 791 793 795 797 798 800 801 803 805 806 807 808 809 810 811 812 813 813 814 815 815 816 816 817 817 818 818 818 818 819 819 820 820 821 822 822 822 823 823 823 822 823 824 824 826 828 829 830 830 830 831 833 833 834 834 835 835
783 784 784 789 790 787 783 776 774 774 771 773 775 773 771 771 769 768 771 773 774 774 775 775 775 775 775 775 776 776 777 777 777 779 782 784 786 787 788 790 792 793 795 797 799 800 802 803 805 806 807 808 809 809 811 812 813 814 814 815 816 816 817 817 817 818 818 818 818 819 819 820 821 821 821 821 822 822 822 822 822 823 824 824 825 827 827 828 828 829 831 832 833 834 834 834 835
781 782 782 783 784 783 781 777 779 780 776 775 776 774 773 771 769 768 770 774 774 775 777 777 777 777 776 776 776 776 776 775 777 780 782 784 786 787 788 790 792 793 795 797 798 800 801 803 804 806 807 808 809 810 811 812 813 814 814 815 816 816 817 817 818 818 818 819 819 819 819 820 820 820 820 820 821 821 822 822 822 822 823 823 824 826 826 827 828 829 830 831 832 833 833 834 834
784 783 783 784 784 779 776 777 781 783 777 776 780 779 776 772 768 767 771 775 775 775 777 777 777 777 776 776 775 775 775 775 777 780 782 784 785 787 788 790 792 794 795 796 798 799 801 802 803 805 807 809 810 810 811 812 813 814 815 816 816 817 817 818 818 818 819 819 819 819 819 819 820 820 820 820 820 821 821 821 822 822 822 823 824 825 826 826 827 828 828 829 830 831 832 833 834
786 784 783 785 787 779 777 780 782 783 778 778 784 780 773 771 768 768 771 771 770 771 774 774 774 774 774 774 773 773 773 775 777 779 781 782 784 786 788 790 791 792 794 795 797 798 800 802 803 805 807 809 810 811 812 812 813 814 815 816 816 817 818 818 819 819 819 819 819 820 819 819 819 819 820 820 820 821 821 821 821 821 822 823 824 824 825 825 825 825 826 827 828 829 831 832 833
787 787 785 784 786 783 780 781 782 784 777 775 783 779 771 770 770 770 771 768 765 767 770 770 770 771 771 771 771 772 773 775 776 777 779 780 782 784 786 788 790 791 793 794 796 798 800 801 803 805 806 808 810 811 812 812 813 814 815 816 816 817 818 818 819 819 819 820 820 820 820 820 819 819 820 820 821 821 821 821 821 821 822 823 823 824 824 824 824 824 825 826 827 828 830 831 831
787 787 785 784 787 786 780 779 782 786 783 780 782 779 772 770 770 771 774 773 769 769 771 771 771 769 767 767 767 769 771 773 773 774 776 778 781 783 784 786 788 790 792 793 795 797 798 800 802 804 805 807 809 811 812 812 813 814 815 816 817 817 818 818 819 819 820 820 820 820 820 820 820 820 820 821 821 821 821 822 822 822 822 822 823 823 824 825 824 824 825 826 827 828 829 829 829
787 787 784 783 784 782 780 781 781 783 786 786 782 777 773 772 772 770 774 777 773 769 769 768 770 770 769 767 766 766 767 767 769 771 773 775 776 778 780 782 786 788 789 790 792 794 796 799 800 802 804 806 808 810 811 812 813 814 815 816 817 818 818 819 819 819 820 820 820 821 821 821 821 821 821 821 821 822 822 822 823 823 823 823 823 824 825 825 825 825 825 826 827 827 828 829 829
785 782 778 778 777 778 781 783 782 780 783 788 787 782 778 775 772 770 774 774 769 768 768 766 767 769 771 770 767 766 766 765 766 767 768 770 771 774 777 780 782 784 785 787 790 792 795 797 799 801 803 805 807 808 810 811 812 813 814 816 817 818 819 819 819 819 820 820 821 821 821 821 821 822 822 822 822 822 822 823 823 824 824 824 825 825 825 826 826 826 826 827 827 827 828 828 828
783 777 775 777 777 777 780 780 781 782 785 791 793 788 784 778 770 771 777 772 765 764 764 765 768 768 767 768 766 765 765 764 764 764 764 766 768 771 773 775 777 780 782 785 788 791 794 796 798 800 802 804 806 807 808 810 811 812 814 815 816 817 818 819 819 820 820 820 821 821 822 822 822 822 822 823 823 823 823 823 824 824 825 825 826 826 826 827 827 827 827 827 828 828 828 828 829
778 778 778 778 776 777 780 779 781 786 788 790 791 788 788 784 773 775 780 772 765 763 762 764 767 767 766 764 763 763 762 761 762 762 762 763 765 767 768 770 773 776 779 783 786 788 792 794 797 799 802 804 805 806 807 808 810 811 813 815 816 817 818 819 819 820 820 820 821 821 822 822 823 823 823 823 823 824 824 824 825 825 825 826 827 827 827 828 828 828 828 828 828 829 829 829 830
778 784 784 781 780 780 780 781 784 791 792 786 787 789 791 786 774 774 776 770 767 766 766 767 765 765 766 764 763 762 760 760 759 759 759 759 761 762 765 768 771 775 778 780 783 786 790 793 795 798 800 802 804 805 806 807 808 810 812 814 815 817 818 818 819 820 820 820 821 821 822 823 823 823 824 824 824 824 825 825 825 826 826 826 827 827 828 828 828 829 829 829 829 829 830 830 830
781 787 784 783 787 786 785 786 785 792 795 786 787 792 793 786 774 772 775 773 772 772 771 770 767 765 764 763 764 762 760 759 758 757 757 757 759 761 765 768 771 775 777 779 782 785 789 791 793 795 798 800 802 804 805 806 807 809 811 812 814 816 817 818 819 819 820 820 821 821 822 822 823 824 824 824 824 825 825 826 826 826 827 827 827 828 828 828 828 829 829 829 830 830 830 830 831
783 782 778 779 785 786 788 790 787 793 796 790 796 801 796 790 780 777 782 781 782 782 777 772 768 766 763 762 762 761 759 758 756 756 755 756 759 762 765 768 770 774 776 779 782 784 787 788 791 793 796 798 800 802 804 805 806 807 809 811 813 815 816 817 818 819 820 820 821 821 822 822 823 824 824 825 825 825 826 826 826 827 827 827 828 828 828 829 829 829 829 830 830 830 831 831 831
781 775 774 780 786 787 789 791 792 799 798 794 805 808 798 792 783 781 786 785 786 786 782 778 773 770 767 764 763 761 759 756 754 753 753 755 758 761 764 766 768 772 774 777 780 782 785 787 790 792 794 796 798 801 802 803 805 806 808 810 811 813 814 815 816 818 819 819 820 821 821 822 823 824 824 825 825 826 826 826 826 827 827 828 828 828 829 829 829 830 830 830 831 831 831 832 832
778 774 778 785 791 796 798 796 798 800 795 797 808 807 797 788 779 782 787 784 783 785 783 781 778 775 772 768 765 762 759 756 754 752 752 754 757 760 763 765 767 770 772 775 778 781 784 786 788 790 791 794 796 799 800 802 803 804 806 808 809 811 813 814 815 816 817 818 819 820 820 821 822 823 824 824 825 826 826 826 826 827 827 827 828 828 829 829 830 830 831 831 831 832 832 832 833
775 773 779 785 794 808 810 807 809 802 794 800 807 802 793 784 779 784 786 783 783 783 782 781 780 778 775 771 767 763 761 758 754 753 753 755 756 759 763 766 768 770 772 775 778 781 783 785 786 787 790 792 794 796 798 800 802 803 804 806 808 809 810 812 813 814 816 817 818 819 820 820 821 822 823 824 825 825 826 826 826 827 827 827 828 828 829 829 830 830 831 831 831 832 833 833 833
778 774 775 779 785 797 801 798 797 794 793 802 805 798 789 782 782 785 783 783 784 782 782 781 779 778 775 772 769 765 763 760 757 755 756 757 758 760 763 766 769 771 773 776 778 781 783 784 785 787 789 791 793 795 796 798 800 801 803 804 806 808 809 810 811 813 814 815 817 818 819 819 820 821 822 823 824 825 825 826 826 826 827 827 827 828 828 829 829 830 830 831 831 832 832 833 833
783 780 775 777 774 778 795 803 799 795 795 799 799 793 786 783 784 785 783 783 783 782 782 780 779 777 774 772 770 768 766 763 761 759 759 759 760 761 763 765 768 771 773 775 778 780 782 783 784 786 788 790 792 794 795 798 800 801 802 804 805 807 808 809 810 812 814 815 816 817 818 819 819 820 821 822 823 824 825 826 826 827 827 827 827 827 828 828 828 829 830 830 830 831 832 832 833
780 780 773 777 775 773 792 809 814 809 798 795 796 791 785 785 785 783 783 783 782 783 781 779 780 777 774 774 773 771 769 767 765 763 762 763 763 763 764 765 767 769 771 774 776 778 780 782 784 785 787 789 791 792 794 796 799 801 803 804 805 806 807 808 809 811 813 814 816 817 818 819 819 820 820 821 822 823 824 825 826 827 827 827 827 827 828 828 828 828 829 830 830 830 831 831 832
774 775 770 775 779 777 783 797 809 811 800 796 799 793 785 785 785 783 783 783 782 783 782 781 781 778 778 778 776 775 773 771 769 767 766 765 765 766 766 767 768 769 771 773 775 777 779 781 782 784 786 788 789 790 792 795 797 799 801 802 803 804 806 807 808 810 811 813 814 816 817 818 819 819 820 820 821 822 823 824 825 826 827 827 828 828 828 828 828 828 829 829 830 830 830 830 831
770 769 768 773 778 779 783 792 798 802 803 800 798 799 792 781 780 782 782 783 783 783 784 782 782 782 783 782 779 778 776 774 773 771 770 770 768 768 769 769 770 771 772 774 775 777 778 780 781 782 784 786 788 790 791 793 795 795 797 797 799 801 803 804 806 807 809 810 812 813 814 816 817 818 819 820 821 821 822 823 824 825 826 827 828 828 828 829 829 829 829 830 830 830 830 830 831
771 770 772 776 776 777 780 785 783 786 799 802 795 795 787 773 775 778 778 783 784 784 785 785 785 786 786 785 783 781 779 778 777 775 774 774 773 771 771 772 773 773 774 775 776 778 779 780 781 782 784 785 787 789 790 792 793 793 794 796 798 800 800 801 803 804 805 806 808 810 811 813 815 816 817 818 819 820 821 822 823 824 824 825 827 827 828 829 829 829 830 830 830 831 831 831 831
772 772 775 777 780 782 780 782 783 781 791 801 799 792 778 772 778 776 776 782 784 784 786 787 788 788 787 787 785 784 783 782 781 779 778 777 776 774 774 775 774 774 775 776 777 779 780 781 782 782 783 784 785 787 789 790 791 791 793 794 796 796 796 798 799 800 801 803 805 806 808 810 811 813 814 816 817 818 819 820 821 822 823 824 825 826 826 827 828 829 829 830 830 831 831 831 831
773 771 773 774 778 781 779 784 789 784 784 792 796 788 774 774 781 778 779 784 784 786 787 787 789 789 788 788 786 786 786 784 784 783 782 781 779 778 777 777 776 775 777 778 778 779 780 782 783 783 784 784 784 785 786 788 789 789 790 791 792 792 793 794 795 796 798 799 801 803 805 807 808 810 811 812 814 815 816 817 818 819 821 822 823 824 824 826 827 827 828 829 830 830 831 831 831